Вернуться в каталог

STARLINK-4372

АктивенСвязьSSO
NORAD 53233·PAYLOAD·🇺🇸 United States

Запущен Jul 22, 2022 с Vandenberg Space Force Base

Loading…

Ближайшие Пролёты (ближайшие 24 часа)

TLE

СвежийSource: CelesTrak SupGP

Эпоха: Sep 14, 2026, 21:56 UTC

1 53233C 22084AW  26257.91437500 -.00005901  00000+0 -18324-3 0  2577
2 53233  97.2834 312.7206 0001628  90.4134 298.1796 15.33430966    13

Отслеживайте STARLINK-4372 в реальном времени с AllMySat

Download on the App Store